Theta_e
340 338 337 338 338 339 339 339 340 341 339 338 337 335 335 335 335 339 339 342 346 347 355 356 357 357 356 353 351 351 351 352 353 352 351 350 350 350 350 349 349 349 348
341 337 335 335 337 339 341 340 340 339 339 338 338 338 338 340 341 342 342 342 347 348 352 355 357 358 358 357 355 354 352 351 352 352 351 351 350 350 350 350 350 349 348
340 337 335 335 336 339 340 340 340 340 338 339 338 340 341 342 342 342 343 345 346 346 349 353 355 357 357 356 356 355 354 352 352 351 351 351 350 350 350 351 351 351 349
341 339 335 334 336 339 340 340 340 339 338 339 340 341 341 341 342 344 346 346 345 343 343 345 350 355 356 357 357 357 354 351 350 350 350 351 351 350 350 350 351 350 349
343 341 339 340 340 340 340 341 343 341 341 342 341 342 343 344 346 347 346 344 343 340 340 343 346 348 350 353 355 357 357 353 350 349 350 350 351 351 350 350 349 349 349
344 342 342 342 344 344 344 343 343 341 342 342 341 345 344 345 343 341 341 342 341 341 342 341 335 334 338 345 349 352 354 356 352 351 349 348 348 349 348 350 349 348 348
344 342 342 341 340 341 343 342 341 340 341 340 336 338 338 340 339 340 341 341 340 341 339 337 333 335 339 341 345 348 352 355 351 343 347 345 345 348 347 347 349 348 347
349 346 342 342 341 341 342 341 338 339 339 337 334 331 328 329 333 332 335 337 339 338 338 335 335 338 339 339 343 346 350 353 351 349 349 343 345 347 348 347 347 348 347
341 340 341 341 341 341 342 341 337 336 336 336 333 332 325 322 323 328 333 335 335 335 333 335 334 336 338 339 337 341 343 347 347 348 347 345 345 343 344 346 346 347 347
330 335 334 333 333 335 337 336 338 337 335 334 334 335 331 328 322 319 324 327 329 332 335 334 332 333 331 332 332 338 338 340 343 343 343 340 340 342 344 345 345 346 346
324 326 327 329 331 333 334 337 338 334 333 333 333 330 330 328 327 323 320 322 323 325 329 330 327 327 327 326 331 332 333 335 336 337 335 336 339 340 342 343 344 344 345
320 321 322 323 324 325 327 330 332 332 333 334 333 332 330 325 325 323 321 321 319 323 323 324 324 325 324 327 328 331 332 331 331 330 331 334 335 336 337 339 341 341 342
316 316 318 318 320 321 322 323 325 326 327 327 327 328 328 328 326 324 321 320 319 321 319 320 323 323 324 325 327 329 333 331 329 327 327 328 330 332 334 335 335 336 338
315 316 316 316 316 317 318 318 319 320 321 323 322 324 325 326 326 324 322 320 314 312 313 321 321 322 324 324 324 327 331 327 327 324 323 324 326 327 328 329 329 329 330
315 314 314 314 314 315 315 314 314 315 317 319 319 322 322 324 325 325 322 320 317 312 314 316 315 321 319 320 323 326 328 327 327 323 322 322 322 323 323 324 324 324 326
311 310 311 312 312 313 313 312 311 313 314 313 316 316 318 322 322 324 324 323 321 318 315 320 319 320 323 322 321 326 326 326 325 323 322 322 320 321 321 321 320 321 323
309 310 310 311 311 310 309 309 310 311 309 310 311 311 312 315 317 317 319 320 320 318 314 318 320 323 321 321 323 324 326 329 329 321 321 319 318 318 318 318 318 319 320
308 308 308 308 307 307 307 307 307 307 307 306 307 308 308 309 309 310 311 312 315 317 316 313 317 317 317 320 321 320 321 321 322 320 318 317 317 316 316 315 316 316 314
304 304 304 304 304 304 304 304 306 306 305 304 304 305 305 306 306 306 306 307 309 310 313 311 310 317 317 319 320 319 318 321 321 322 318 318 317 316 315 315 314 313 312
300 300 300 301 301 301 301 301 302 304 302 301 302 303 302 303 303 304 304 306 307 307 307 306 307 307 310 315 316 314 316 318 319 321 320 317 317 317 316 315 314 315 311
298 298 298 298 298 298 298 299 299 299 299 299 300 300 301 302 303 303 303 304 305 304 304 303 302 304 305 307 308 312 312 315 318 318 319 319 322 324 324 316 319 316 312
294 295 294 294 294 295 296 297 297 296 296 295 295 297 297 299 298 299 300 301 302 301 300 300 300 300 303 304 307 309 311 310 307 316 318 317 323 322 322 322 314 310 308
292 291 291 291 291 292 294 295 296 296 295 295 295 295 296 297 299 298 299 300 301 301 302 301 299 300 301 303 306 305 307 308 308 313 316 313 318 317 322 320 309 308 306
288 288 288 290 290 292 294 294 295 295 294 294 295 295 295 295 296 297 298 297 298 300 302 302 301 301 302 303 302 302 301 302 306 310 315 308 316 315 322 321 308 304 303
286 287 288 290 291 293 293 294 294 293 293 293 294 295 295 295 296 295 295 295 296 299 301 300 299 299 297 297 298 298 296 296 297 302 313 312 313 314 317 320 323 304 303
287 289 289 291 292 292 292 292 292 293 292 292 294 295 295 295 294 294 294 294 293 295 297 298 299 299 298 299 298 299 298 295 296 299 308 309 312 313 310 318 320 318 317
Wind_Speed
4 4 4 3 4 3 4 4 4 5 5 5 6 6 7 5 4 3 4 14 13 12 10 9 11 10 11 11 12 13 13 12 12 13 13 13 14 13 13 12 11 11 10
4 3 4 5 5 4 4 4 5 4 5 3 6 6 7 4 5 7 6 6 13 11 10 9 10 12 12 13 13 13 13 11 13 12 13 13 13 14 14 14 13 13 12
4 5 4 4 6 3 4 3 5 3 4 3 7 6 4 5 6 7 8 6 6 7 9 11 11 12 13 11 11 12 12 12 14 13 13 13 13 14 14 15 14 14 14
7 4 5 5 4 2 3 4 4 4 4 5 5 5 3 4 7 8 8 7 4 5 5 5 9 11 11 10 11 11 11 10 11 9 10 13 13 15 16 15 15 15 14
6 5 6 6 4 4 4 4 4 4 4 5 4 3 5 5 6 5 9 7 5 4 3 3 4 5 7 6 9 10 11 9 10 10 9 10 13 15 16 16 15 16 15
5 7 6 5 3 2 4 4 6 3 4 3 4 4 4 4 5 5 7 7 5 4 3 3 2 3 6 5 8 10 9 10 7 7 8 8 9 12 17 17 16 16 16
7 6 6 4 3 5 7 5 3 4 4 2 2 2 4 7 8 7 6 3 3 4 2 2 1 1 2 5 6 7 8 7 5 9 5 5 6 8 12 15 17 16 17
4 4 5 5 5 5 8 5 4 4 3 4 3 1 3 4 3 2 3 2 3 2 2 1 2 3 2 1 3 8 7 6 6 5 4 3 6 8 11 10 14 18 17
8 7 6 3 3 4 6 3 1 4 5 2 6 3 1 3 3 2 6 4 5 3 3 4 3 2 2 1 2 4 8 6 5 6 4 4 3 8 11 11 10 11 14
12 11 8 6 3 3 4 2 3 6 4 6 2 4 4 4 3 4 1 6 3 4 4 3 4 2 1 2 5 7 7 7 7 1 1 2 3 5 11 10 10 9 11
11 11 10 9 8 5 6 6 6 4 3 4 5 3 4 3 2 5 7 5 4 3 3 4 3 3 4 3 3 5 7 6 6 3 0 2 3 3 6 9 11 10 9
5 7 7 6 6 6 7 6 5 5 4 4 4 4 3 4 4 4 7 10 4 4 3 4 5 4 3 2 4 9 8 7 6 6 3 3 3 4 3 5 8 10 10
3 5 5 6 4 4 5 5 5 5 5 4 3 3 2 4 3 3 3 4 5 3 3 3 4 3 3 3 5 7 9 8 8 7 5 5 3 1 3 4 8 11 11
2 3 5 5 5 5 5 5 3 3 4 4 5 4 3 2 3 2 2 2 3 3 2 5 3 4 5 3 7 6 6 9 9 9 8 7 6 4 4 4 6 9 10
1 4 4 4 5 5 5 4 3 4 4 4 4 4 3 2 2 3 4 3 4 5 6 3 3 5 5 5 5 5 7 9 10 8 8 8 7 7 6 4 5 7 9
4 6 6 6 6 6 7 7 5 5 5 4 4 5 3 2 3 3 3 4 5 5 9 4 5 5 3 3 6 6 8 10 10 10 8 9 10 10 6 7 5 6 7
5 5 5 5 5 5 6 5 5 5 6 5 5 6 7 5 4 4 3 3 4 5 7 8 4 3 5 7 8 7 7 7 7 10 11 11 11 11 7 9 7 6 5
4 4 5 5 5 6 5 6 6 5 5 6 7 6 7 5 6 5 4 5 4 4 5 11 7 3 5 5 7 7 6 7 7 9 12 10 9 10 9 10 9 7 6
5 6 6 7 8 8 8 8 8 8 7 7 9 9 9 8 8 6 6 7 6 6 5 6 6 4 5 5 8 7 7 7 7 11 10 12 11 10 12 12 10 10 8
5 6 7 8 9 10 11 11 11 8 8 11 11 10 10 10 10 10 10 9 8 7 7 7 7 8 7 7 6 8 8 5 7 7 9 10 7 9 12 13 11 9 9
7 7 9 10 10 11 10 11 9 10 11 12 11 11 11 13 20 17 10 10 9 9 9 10 10 9 9 9 10 7 8 7 8 5 6 7 6 6 8 10 9 10 9
8 9 10 11 12 10 14 17 14 9 11 11 12 12 12 16 15 19 20 21 17 13 14 11 11 12 13 9 8 8 8 8 11 6 6 10 6 7 7 8 9 10 8
10 11 11 11 12 11 15 15 15 9 9 10 11 11 11 10 13 12 14 17 17 20 20 14 13 12 13 11 8 9 10 11 12 7 5 8 3 7 6 6 10 11 12
10 10 11 12 11 10 13 13 15 10 9 10 12 12 12 12 11 11 10 11 12 13 9 7 9 11 10 9 6 5 4 8 8 8 8 12 6 9 6 6 11 11 7
10 10 10 12 12 10 13 12 11 8 9 11 11 11 11 11 13 13 11 12 11 10 9 13 14 13 10 11 10 6 7 5 6 5 5 9 8 8 5 7 5 6 6
11 10 11 10 12 10 12 13 12 7 9 8 10 11 14 13 15 15 11 10 10 11 9 8 7 10 12 13 13 11 9 7 6 5 6 6 7 6 7 5 5 4 3
Wind_Direction
197 199 226 223 242 228 238 243 244 257 260 258 263 257 265 260 254 259 264 275 269 266 267 241 239 238 231 230 231 229 227 230 225 221 224 223 226 222 223 217 215 219 218
200 205 227 238 246 232 247 253 254 252 257 250 272 254 264 254 248 266 263 273 269 258 258 246 242 243 242 231 224 229 228 225 233 228 226 229 228 227 222 226 215 216 218
220 196 224 241 240 222 250 257 267 261 266 254 259 269 259 264 273 280 276 264 269 259 251 250 257 255 254 254 240 232 222 221 227 226 221 222 223 227 226 222 218 220 217
205 201 226 235 236 195 226 236 242 257 256 256 265 271 270 261 263 266 275 270 264 268 262 265 254 249 246 244 246 246 242 225 231 221 226 231 221 227 226 223 221 217 219
207 204 230 233 205 211 224 241 253 209 250 263 266 244 251 241 234 252 259 264 254 249 267 265 282 265 257 260 267 262 258 247 225 221 226 223 229 227 227 223 215 219 219
223 215 237 242 205 233 246 235 242 236 234 243 259 266 254 252 243 248 245 239 253 250 256 270 270 300 315 315 289 274 266 261 243 235 233 219 238 241 229 221 215 216 222
213 203 233 240 231 241 256 248 263 249 260 237 296 262 261 240 246 243 245 250 273 266 219 228 260 292 302 297 291 285 262 246 214 249 278 252 260 263 265 232 216 209 216
292 239 235 233 213 244 246 238 225 278 246 167 221 168 296 320 259 282 262 241 228 224 208 210 255 243 239 270 304 313 299 259 278 288 277 306 302 295 286 276 230 216 211
30 34 35 342 312 256 279 328 264 245 281 213 214 207 228 239 346 14 306 267 211 189 198 207 247 259 253 270 342 315 311 307 307 293 268 281 308 308 308 288 272 232 216
37 31 25 18 356 319 307 273 251 252 196 256 198 221 237 191 174 320 235 249 10 260 257 248 184 181 217 273 280 264 270 285 296 294 188 298 291 294 300 302 292 264 249
37 32 32 25 19 354 336 321 319 271 251 262 247 195 228 246 178 148 253 271 304 249 237 242 225 204 226 253 262 264 264 257 276 287 300 267 309 332 321 315 307 294 281
36 32 28 23 20 20 10 358 349 344 321 299 294 279 252 241 244 182 232 254 235 269 263 238 233 213 203 255 273 274 264 273 252 241 242 265 313 344 346 321 321 324 318
16 12 21 20 6 356 5 7 20 15 359 356 338 289 279 269 275 240 205 248 238 243 272 261 254 263 264 218 234 251 253 259 252 250 241 251 275 287 295 306 324 318 310
19 358 10 10 2 360 4 6 3 351 351 354 353 348 325 291 217 231 245 225 266 266 248 238 268 241 244 234 245 252 269 255 236 235 244 261 286 276 259 281 318 312 307
0 10 8 359 349 347 348 350 346 339 337 340 330 344 328 321 295 253 229 230 243 260 255 255 246 200 212 224 229 242 249 256 242 236 236 247 256 261 253 268 285 288 292
11 3 0 359 351 352 353 352 341 328 332 330 316 321 307 275 280 265 251 242 221 239 268 244 238 241 263 242 236 228 239 251 258 250 240 245 256 260 219 247 257 259 283
359 11 4 357 6 4 355 345 334 333 341 333 331 320 307 307 302 308 300 270 249 219 255 278 270 266 258 252 263 234 231 238 240 233 251 256 242 254 206 235 233 241 256
18 24 16 360 351 347 341 331 316 322 329 325 319 318 307 314 307 306 304 292 271 246 244 271 274 254 251 271 265 284 261 251 247 249 242 252 260 240 225 216 220 238 272
18 9 1 342 331 322 311 302 283 277 281 288 291 278 278 280 279 280 276 272 260 253 233 253 270 267 258 271 278 274 265 260 249 247 257 254 239 233 241 216 210 232 254
357 344 327 310 307 302 296 295 289 278 283 292 284 277 280 278 278 280 275 269 262 252 250 258 260 261 259 253 253 269 271 252 260 253 250 253 236 230 220 210 216 229 248
331 316 306 301 295 291 294 302 307 303 296 294 290 288 285 283 283 280 279 274 264 260 259 265 266 261 253 251 248 255 263 270 265 256 262 259 251 245 235 223 235 227 236
311 309 299 296 295 296 306 302 301 292 287 287 290 289 285 286 284 283 282 279 272 270 263 260 263 257 257 255 256 250 251 251 265 240 247 257 226 240 239 225 226 242 240
311 308 303 301 292 292 289 286 289 287 285 284 282 282 284 281 286 284 282 281 277 267 256 261 261 254 259 257 257 256 256 252 254 250 240 263 232 247 234 230 227 243 252
304 298 296 292 287 286 296 301 295 293 286 283 286 279 273 275 272 273 277 280 274 271 252 252 253 261 263 268 252 265 290 292 289 265 247 263 248 251 241 227 215 233 260
304 300 297 294 294 300 294 293 306 301 293 289 288 286 280 279 280 274 277 278 281 272 256 252 248 257 256 256 252 276 259 257 270 264 222 245 240 246 229 242 259 218 227
300 305 297 289 296 302 299 295 297 297 299 295 292 289 283 272 274 274 275 275 275 274 274 271 251 247 257 263 254 246 257 250 245 279 225 266 247 237 242 213 217 216 219